Regional Weather Roundup
Issued by NWS San Diego, CA

Home | Current Version | Previous Version | Text Only | Print | Product List | Glossary On
Versions: 1 2 3 4 5 6 7 8 9 10 11 12 13 14 15 16 17 18 19 20 21 22 23 24 25 26 27 28 29 30 31 32 33 34 35 36 37 38 39 40 41 42 43 44 45 46 47 48 49 50
000
ASUS46 KSGX 241011
RWRSGX

SAN DIEGO HOURLY WEATHER ROUNDUP
NATIONAL WEATHER SERVICE SAN DIEGO CA
300 AM PDT TUE MAY 24 2016

NOTE: "FAIR" INDICATES FEW OR NO CLOUDS BELOW 12,000 FEET WITH NO
SIGNIFICANT WEATHER AND/OR OBSTRUCTIONS TO VISIBILITY.

CAZ042-043-060-061-PZZ750-775-241100-

GREATER SAN DIEGO AREA

CITY           SKY/WX    TMP DP  RH WIND       PRES   REMARKS
LINDBERGH FLD  MOCLDY    63  51  65 W12       29.96S
POINT LOMA       N/A     58  53  82 W10         N/A
NATIONAL CITY    N/A     62  54  75 W3        29.95S
CHULA VISTA      N/A     60  54  80 SW5       29.88S
IMPERIAL BEACH CLOUDY    63  51  65 W9        29.96S
BROWN FIELD    CLOUDY    58  50  75 S5        29.95S
MIRAMAR MCAS   CLOUDY    62  48  60 SE8       29.94S
MONTGOMERY FLD LGT RAIN  60  49  66 S5        29.95S

$$

NORTH SAN DIEGO COUNTY

CITY           SKY/WX    TMP DP  RH WIND       PRES   REMARKS
CAMP PENDLETON CLOUDY    58  48  69 NE5       29.93F
OCEANSIDE AP   CLOUDY    61  47  59 SE6       29.93S
OCEANSIDE HBR    N/A     61  52  71 SE6       29.95F
VISTA            N/A     59  49  71 E1        29.92F
CARLSBAD       CLOUDY    60  48  64 SE7       29.93S
DEL MAR          N/A     60  53  77 CALM      29.97S
LA JOLLA SCRIP   N/A     60  53  76 SW8       29.94S
FALLBROOK        N/A     58  51  78 E1        29.93S
ESCONDIDO        N/A     58  48  68 E1        29.96S
SAN MARCOS       N/A     58  47  67 CALM      29.92F
POWAY            N/A     58  48  70 CALM      29.96S

$$

EAST SAN DIEGO COUNTY

CITY           SKY/WX    TMP DP  RH WIND       PRES   REMARKS
RAMONA         CLOUDY    54  45  71 S3        29.95S
SANTEE LAKES     N/A     59  50  72 CALM      29.94F
LA MESA          N/A     58  49  74 CALM      29.88F
JAMUL            N/A     56  47  72 CALM      29.95S
DESCANSO N       N/A     45  41  84 CALM      29.83F
MT. LAGUNA OBS   N/A     33  32  97 W16       29.51F WCI  22
CAMPO            N/A     49  42  77 SW10      29.91F

$$

ORANGE COUNTY AND THE LOS ANGELES BASIN

CITY           SKY/WX    TMP DP  RH WIND       PRES   REMARKS
JOHN WAYNE AP  MOCLDY    60  51  72 SE3       29.93S
LAKE FOREST FR   N/A     56  48  75 CALM      29.82S
HUNTINGTON BCH   N/A     57  54  90 CALM      29.95S
LOS ALAMITOS   FAIR      57  51  80 SW2       29.92F
FULLERTON      CLOUDY    61  51  70 CALM      29.91F
LONG BEACH     PTCLDY    59  52  77 E3        29.92F
L.A. AP        MOCLDY    58  52  80 W3        29.92F
L.A. DOWNTOWN  PTCLDY    58  52  80 CALM      29.92S

$$

THE INLAND EMPIRE

CITY           SKY/WX    TMP DP  RH WIND       PRES   REMARKS
CORONA         PTCLDY    56  48  74 SW5       29.93S
CHINO          MOCLDY    56  47  71 W6        29.94S
ONTARIO        CLOUDY    57  47  69 CALM      29.92S
RIVERSIDE AP   PTCLDY    57  47  69 CALM      29.92F
MORENO VALLEY    N/A     53  51  91 S1        28.04S
MARCH ARB      CLOUDY    54  47  77 S9        29.92F
HORSETHIEF CYN   N/A     54  44  70 CALM      29.95F
PERRIS           N/A     53  49  86 S6        29.94S
HEMET EAST       N/A     51  43  72 CALM      29.84R
FRENCH VALLEY  CLOUDY    54  45  71 S6        29.94S
TEMECULA         N/A     55  49  79 SW2       29.90S

$$

SAN BERNARDINO AND RIVERSIDE COUNTY MOUNTAINS

CITY           SKY/WX    TMP DP  RH WIND       PRES   REMARKS
BIG BEAR AP    CLEAR     34  27  75 W5        29.93S WCI  30
ANGELUS OAKS     N/A     35  31  83 CALM      29.79F
PINE COVE        N/A     37  34  90 N3        29.85F

$$

SOUTHERN DESERT INCLUDING THE COACHELLA VALLEY

CITY           SKY/WX    TMP DP  RH WIND       PRES   REMARKS
PALM SPRINGS   CLEAR     67  43  41 VRB7      29.78S
THOUSAND PALMS   N/A     63  46  54 NW18      29.76S
PALM DESERT      N/A     64  47  54 CALM      32.02R
THERMAL        CLEAR     66  45  46 N21       29.75R
BLYTHE         CLEAR     69  47  45 S17       29.74R
IMPERIAL AP    CLEAR     64  40  41 W20G30    29.78R
EL CENTRO NAS  CLEAR     64  40  41 W32G40    29.79F
YUMA AZ        CLEAR     66  31  27 NW7       29.79

$$

UPPER DESERT

CITY           SKY/WX    TMP DP  RH WIND       PRES   REMARKS
VICTORVILLE AP CLEAR     52  41  66 S16       29.87S
HESPERIA         N/A     49  43  81 W9        29.97S
PALMDALE       CLEAR     53  43  68 SW15      29.88S
LANCASTER      CLEAR     52  41  66 SW15      29.88S
EDWARDS AFB    PTCLDY    52  41  64 SW14      29.84S
DAGGETT        CLEAR     60  41  49 SW23G32   29.81S
29 PALMS N     CLEAR     60  31  33 W9        29.87S
NEEDLES        CLEAR     74  38  27 W8        29.73R

$$

REGIONAL REPORTS

CITY           SKY/WX    TMP DP  RH WIND       PRES   REMARKS
SANTA BARBARA  PTCLDY    52  46  80 CALM      29.91S
SANDBERG       MOCLDY    45  41  86 SW13      29.92F
LAS VEGAS NV   PTCLDY    65  37  35 S12G21    29.70R
PHOENIX AZ     CLEAR     71  29  21 E5        29.78R
TIJUANA        CLOUDY    59  46  63 S5        29.98S
ENSENADA NW      N/A     60  32  35 CALM      29.94F

$$

OFFSHORE ISLANDS

CITY           SKY/WX    TMP DP  RH WIND       PRES   REMARKS
CATALINA ARPT  CLOUDY    51  49  92 W9        29.93F
SAN NICOLAS IS PTCLDY   N/A N/A N/A W21       29.93S

$$

MARINE AND OFFSHORE BUOY REPORTS

STATION/POSITION SKY/WX   TEMP    WIND        PRES    SWELL
                          AIR SEA DIR/SP/G            HT/PER/DIR
                          (F)     (DEG/KT/KT) (MB)    (FT/S/D)
TANNER BANKS               60 62  270/ 12/ 14 1014.3F   3/320/ 6
S CLEMENTE BASIN           60 62  300/ 12/ 14 1014.1F   3/290/ 7
SAN NICOLAS IS.               60                N/A     2/230/15
SO. S. ROSA ISLA           56 58  310/ 14/ 17 1013.6F   2/240/13
W. S. BARBARA CH           55 56  330/ 12/ 14 1013.0F   2/310/ 9
M. S. BARBARA CH           58 59  290/ 14/ 16 1013.4S
S. MONICA BASIN            59 63   CALM  /  2 1013.2F   3/270/ 6
S PEDRO CHANNEL               64                N/A
OCEANSIDE OFFSHR              65                N/A     2/200/13
TORREY PINES OTR              66                N/A     2/220/15
LA JOLLA 1                 62 66  250/  4/  6 1013.8S
SAN DIEGO BAY                 69              1014.3F
POINT LOMA SOUTH              65                N/A     2/180/12

$$




USA.gov is the U.S. government's official web portal to all federal, state and local government web resources and services.